Regional Weather Roundup
Issued by NWS Upton, NY

Current Version | Previous Version | Graphics & Text | Print | Product List | Glossary Off
Versions: 1 2 3 4 5 6 7 8 9 10 11 12 13 14 15 16 17 18 19 20 21 22 23 24 25 26 27
000 ASUS41 KOKX 240205 RWROKX REGIONAL WEATHER ROUNDUP NATIONAL WEATHER SERVICE NEW YORK NY 1000 PM EDT SAT JUL 23 2016 NOTE: "FAIR" INDICATES FEW OR NO CLOUDS BELOW 12,000 FEET WITH NO SIGNIFICANT WEATHER AND/OR OBSTRUCTIONS TO VISIBILITY. NYZ071-072-176-178-NJZ106-104-240300- NEW YORK CITY METRO AREA CITY SKY/WX TMP DP RH WIND PRES REMARKS Central Park CLEAR 88 55 32 MISG 29.89R LaGuardia APRT PTCLDY 89 57 33 N9 29.85R Kennedy INTL PTCLDY 89 52 28 N10 29.86R Newark/Liberty PTCLDY 89 55 31 N16G25 29.86R BRNX BOT. GARD N/A 84 55 37 W2 29.88S Wall St Helipt CLEAR 88 57 35 SW3 29.87R Teterboro CLEAR 87 53 31 N7 29.85R $$ NYZ177-179-078>081-240300- LONG ISLAND NEW YORK CITY SKY/WX TMP DP RH WIND PRES REMARKS FARMINGDALE CLEAR 86 56 35 N6 29.85R ISLIP PTCLDY 82 59 45 NW7 29.84R SHIRLEY CLEAR 78 61 55 CALM 29.85R RIVERHEAD NOT AVBL WESTHAMPTON PTCLDY 73 65 75 CALM 29.86R SOUTHAMPTON N/A 77 70 78 CALM 29.80S BRIDGEHAMPTON N/A 77 64 65 CALM 29.83R EAST HAMPTON FAIR 74 64 70 CALM 29.83R MONTAUK POINT N/A 81 65 58 W3 29.84R $$ NYZ052-065-067-240300- HUDSON VALLEY CITY SKY/WX TMP DP RH WIND PRES REMARKS WHITE PLAINS CLEAR 80 56 43 NW7 29.87R NEWBURGH NOT AVBL MONTGOMERY CLEAR 74 60 61 CALM 29.89R POUGHKEEPSIE CLEAR 79 59 50 CALM 29.87R ALBANY PTCLDY 68 64 87 N5 29.91R $$ NJZ001-105-106-008-010-013-015-019>022-104-240300- NEW JERSEY CITY SKY/WX TMP DP RH WIND PRES REMARKS NEWARK/LIBERTY PTCLDY 89 55 31 N16G25 29.86R TETERBORO CLEAR 87 53 31 N7 29.85R CALDWELL CLEAR 84 56 38 CALM 29.88R MORRISTOWN PTCLDY 75 64 69 CALM 29.89R SOMERVILLE CLEAR 78 64 61 NW3 29.86R SUSSEX CLEAR 74 60 61 CALM 29.91S ANDOVER N/A 80 57 45 CALM 29.91R TRENTON PTCLDY 82 67 60 W5 29.88R MILLVILLE CLEAR 76 73 91 S3 29.90R ATLANTIC CITY CLEAR 75 69 81 S3 29.90R WRIGHTSTOWN CLEAR 74 71 89 SW6 29.86R TOMS RIVER PTCLDY 73 70 88 SW8 29.89R BELMAR PTCLDY 79 68 69 SW8 29.88R $$ PAZ047>061-062-071-240300- EASTERN PENNSYLVANIA CITY SKY/WX TMP DP RH WIND PRES REMARKS PHILADELPHIA PTCLDY 81 70 69 S7 29.90R ALLENTOWN CLEAR 79 59 50 CALM 29.89R SCRANTON CLEAR 81 55 40 N6 29.94R $$ CTZ002-004>006-009-010-012-RIZ004-006-007-MAZ004-011-015-240300- SOUTHERN NEW ENGLAND IN CT CITY SKY/WX TMP DP RH WIND PRES REMARKS BRADLEY INTL CLOUDY 77 59 53 N7 29.86R HARTFORD MOCLDY 83 60 45 NE10 29.86R DANBURY CLEAR 81 56 42 CALM 29.89R WTRBRY/OXFORD N/A 77 55 47 N14 29.91R BRIDGEPORT CLEAR 86 57 37 NW10 29.84R MERIDEN PTCLDY 84 56 38 N8 29.86R NEW HAVEN CLEAR 83 58 42 N6 29.85R CHESTER FAIR 82 57 42 N10 29.87R GROTON CLEAR 83 59 44 N10 29.83R WILLIMANTIC NOT AVBL IN RI CITY SKY/WX TMP DP RH WIND PRES REMARKS PROVIDENCE MOCLDY 78 57 48 N9 29.85R BLOCK ISLAND CLEAR 76 64 66 W7 29.83R WESTERLY CLEAR 83 57 41 N10 29.83R IN MA CITY SKY/WX TMP DP RH WIND PRES REMARKS BOSTON CLOUDY 73 57 57 NW8 29.83R WORCESTER PTCLDY 69 57 65 NW12 29.90R WESTFIELD MOCLDY 73 59 61 N6 29.88R PROVINCETOWN CLOUDY 66 65 96 CALM 29.82R NANTUCKET MOCLDY 75 64 68 N17G26 29.85R $$ ANZ330-335-338-340-345-350-353-355-240300- COASTAL MARINE OBSERVATIONS STATION/POSITION TIME SKY/WX TEMP WIND PRES VSBY WAVE AIR SEA DIR/SP/G HT/PER (UTC) (F) (DEG/KT/KT) (MB) (MI) (FT/S) NY HARB ENTRANCE 0050 79 74 240/ 12/ 14 1009.9 2/ 8 20S FIRE ISLAND 0050 78 75 240/ 16/ 19 1009.6 3/ 6 GREAT SOUTH BAY 0115 83 81 250/ 8/ 12 N/A 23 SSW MONTAUK P 0050 75 71 240/ 14/ 16 1009.8 4/ 7 15 E BARNEGAT LI 0122 75 N/A 3/ 5 HUDSON CANYON 0050 80 77 1010.6 4/ 6 KINGS POINT 0100 83 74 N/A EXECUTION ROCKS 0100 81 350/ 8/ 10 N/A CENTRAL LI SOUND 0100 80 74 320/ 8/ 10 N/A 1 EASTERN LI SOUND 0100 72 68 260/ 6/ 8 N/A ROBBINS REEF 0100 92 N/A $$ >>>>>>>>>>>>>>>>>>>>>>>>>>>> KEY <<<<<<<<<<<<<<<<<<<<<<<<<<< > < > SKY/WX - SKY CONDITION/PRESENT WEATHER < > TMP - TEMPERATURE IN FAHRENHEIT < > DP - DEWPOINT IN FAHRENHEIT < > RH - RELATIVE HUMIDITY IN PERCENT < > WIND - DIRECTION AND SPEED IN MPH < > PRES - MEAN SEA LEVEL PRESSURE IN INCHES OF HG < > WCI - WIND CHILL INDEX < > VSB - VISIBILITY IN MILES < > HX - HEAT INDEX < > TC - TEMPERATURE IN CELSIUS < > VRB - VARIABLE WIND DIRECTION < > < >>>>>>>>>>>>>>>>>>>>>>>>>>>> KEY <<<<<<<<<<<<<<<<<<<<<<<<<<<

USA.gov is the U.S. government's official web portal to all federal, state and local government web resources and services.